| time (UTC) | temp F | wind direction | speed MPH | gust MPH | rain 1hr in | rain 24hr in | rain mn in | humidity % | barometer mb |
| 20260506173538 | 65 | 45 | 1.0 | 1.0 | 0.00 | 0.00 | 0.00 | 80 | 1020.4 |
| 20260506173034 | 65 | 306 | 0.0 | 0.0 | 0.00 | 0.00 | 0.00 | 81 | 1020.5 |
| 20260506172531 | 64 | 184 | 1.0 | 1.0 | 0.00 | 0.00 | 0.00 | 80 | 1020.4 |
| 20260506172027 | 63 | 339 | 0.0 | 0.0 | 0.00 | 0.00 | 0.00 | 82 | 1020.5 |
| 20260506171525 | 64 | 51 | 1.0 | 2.0 | 0.00 | 0.00 | 0.00 | 83 | 1020.1 |
| 20260506171022 | 64 | 330 | 0.0 | 0.0 | 0.00 | 0.00 | 0.00 | 80 | 1020.5 |
| 20260506170520 | 64 | 317 | 0.0 | 0.0 | 0.00 | 0.00 | 0.00 | 82 | 1020.3 |
| 20260506170012 | 62 | 339 | 0.0 | 1.0 | 0.00 | 0.00 | 0.00 | 82 | 1020.3 |
| 20260506165510 | 64 | 11 | 1.0 | 1.0 | 0.00 | 0.00 | 0.00 | 81 | 1020.6 |
| 20260506165006 | 62 | 2 | 0.0 | 0.0 | 0.00 | 0.00 | 0.00 | 83 | 1020.6 |
| 20260506164503 | 61 | 290 | 0.0 | 1.0 | 0.00 | 0.00 | 0.00 | 84 | 1020.6 |
| 20260506164000 | 60 | 65 | 2.0 | 2.0 | 0.00 | 0.00 | 0.00 | 85 | 1020.5 |
| 20260506163455 | 60 | 111 | 1.0 | 2.0 | 0.00 | 0.00 | 0.00 | 86 | 1020.5 |
| 20260506162949 | 59 | 357 | 0.0 | 1.0 | 0.00 | 0.00 | 0.00 | 88 | 1020.5 |
| 20260506162447 | 59 | 22 | 1.0 | 1.0 | 0.00 | 0.00 | 0.00 | 88 | 1020.4 |
| 20260506161939 | 59 | 97 | 1.0 | 2.0 | 0.00 | 0.00 | 0.00 | 87 | 1020.6 |
| 20260506161437 | 59 | 301 | 0.0 | 1.0 | 0.00 | 0.00 | 0.00 | 87 | 1020.6 |
| 20260506160929 | 59 | 339 | 0.0 | 0.0 | 0.00 | 0.00 | 0.00 | 89 | 1020.5 |
| 20260506160426 | 58 | 333 | 0.0 | 0.0 | 0.00 | 0.00 | 0.00 | 89 | 1020.5 |
| 20260506155923 | 58 | 17 | 0.0 | 0.0 | 0.00 | 0.00 | 0.00 | 91 | 1020.6 |
| 20260506155420 | 57 | 290 | 0.0 | 0.0 | 0.00 | 0.00 | 0.00 | 91 | 1020.6 |
| 20260506153537 | 57 | 319 | 0.0 | 0.0 | 0.00 | 0.00 | 0.00 | 91 | 1020.3 |
| 20260506153034 | 57 | 64 | 2.0 | 2.0 | 0.00 | 0.00 | 0.00 | 90 | 1020.4 |
| 20260506152531 | 58 | 86 | 2.0 | 2.0 | 0.00 | 0.00 | 0.00 | 89 | 1020.1 |
| 20260506152029 | 57 | 293 | 0.0 | 0.0 | 0.00 | 0.00 | 0.00 | 90 | 1020.3 |
| 20260506151526 | 57 | 288 | 0.0 | 0.0 | 0.00 | 0.00 | 0.00 | 92 | 1020.3 |
| 20260506151024 | 55 | 273 | 0.0 | 0.0 | 0.00 | 0.00 | 0.00 | 93 | 1020.3 |
| 20260506150520 | 55 | 1 | 0.0 | 0.0 | 0.00 | 0.00 | 0.00 | 94 | 1020.3 |
| 20260506150017 | 55 | 329 | 0.0 | 0.0 | 0.00 | 0.00 | 0.00 | 94 | 1020.1 |
| 20260506145514 | 54 | 326 | 0.0 | 0.0 | 0.00 | 0.00 | 0.00 | 96 | 1020.1 |
| 20260506145011 | 54 | 328 | 0.0 | 0.0 | 0.00 | 0.00 | 0.00 | 97 | 1020.1 |
| 20260506144508 | 54 | 306 | 0.0 | 0.0 | 0.00 | 0.00 | 0.00 | 98 | 1020.3 |
| 20260506144005 | 53 | 305 | 0.0 | 0.0 | 0.00 | 0.00 | 0.00 | 98 | 1020.1 |
| 20260506143502 | 53 | 279 | 0.0 | 0.0 | 0.00 | 0.00 | 0.00 | 99 | 1020.1 |
| 20260506143001 | 53 | 284 | 0.0 | 0.0 | 0.00 | 0.00 | 0.00 | 99 | 1020.0 |
| 20260506142458 | 53 | 282 | 0.0 | 0.0 | 0.00 | 0.00 | 0.00 | 99 | 1020.1 |
| 20260506141956 | 53 | 282 | 0.0 | 0.0 | 0.00 | 0.00 | 0.00 | 99 | 1019.9 |
| 20260506141454 | 53 | 319 | 0.0 | 0.0 | 0.00 | 0.00 | 0.00 | 99 | 1019.8 |
| 20260506140952 | 52 | 320 | 0.0 | 0.0 | 0.00 | 0.00 | 0.00 | 99 | 1019.8 |
| 20260506140449 | 52 | 320 | 0.0 | 0.0 | 0.00 | 0.00 | 0.00 | 99 | 1019.7 |
| 20260506135945 | 52 | 320 | 0.0 | 0.0 | 0.00 | 0.00 | 0.00 | 99 | 1019.8 |
| 20260506135443 | 52 | 319 | 0.0 | 0.0 | 0.00 | 0.00 | 0.00 | 99 | 1019.7 |
| 20260506134938 | 52 | 320 | 0.0 | 0.0 | 0.00 | 0.00 | 0.00 | 99 | 1019.8 |
| 20260506134435 | 52 | 320 | 0.0 | 0.0 | 0.00 | 0.00 | 0.00 | 99 | 1019.6 |
| 20260506133932 | 52 | 326 | 0.0 | 0.0 | 0.00 | 0.00 | 0.00 | 99 | 1019.7 |
| 20260506133429 | 52 | 326 | 0.0 | 0.0 | 0.00 | 0.00 | 0.00 | 99 | 1019.6 |
| 20260506132926 | 52 | 326 | 0.0 | 0.0 | 0.00 | 0.00 | 0.00 | 99 | 1019.7 |
| 20260506132423 | 52 | 332 | 0.0 | 0.0 | 0.00 | 0.00 | 0.00 | 99 | 1019.6 |
| 20260506131920 | 52 | 320 | 0.0 | 0.0 | 0.00 | 0.00 | 0.00 | 99 | 1019.7 |
| 20260506131417 | 52 | 320 | 0.0 | 0.0 | 0.00 | 0.00 | 0.00 | 99 | 1019.6 |
| 20260506130914 | 52 | 320 | 0.0 | 0.0 | 0.00 | 0.00 | 0.00 | 99 | 1019.7 |
| 20260506130410 | 52 | 348 | 0.0 | 0.0 | 0.00 | 0.00 | 0.00 | 99 | 1019.5 |
| 20260506125909 | 52 | 341 | 0.0 | 0.0 | 0.00 | 0.00 | 0.00 | 99 | 1019.4 |
| 20260506125406 | 52 | 341 | 0.0 | 0.0 | 0.00 | 0.00 | 0.00 | 99 | 1019.3 |
| 20260506124904 | 52 | 341 | 0.0 | 0.0 | 0.00 | 0.00 | 0.00 | 99 | 1019.2 |
| 20260506124401 | 52 | 341 | 0.0 | 0.0 | 0.00 | 0.00 | 0.00 | 99 | 1019.2 |
| 20260506123859 | 52 | 341 | 0.0 | 0.0 | 0.00 | 0.00 | 0.00 | 99 | 1019.2 |
| 20260506123357 | 52 | 341 | 0.0 | 0.0 | 0.00 | 0.00 | 0.00 | 99 | 1019.3 |
| 20260506122854 | 52 | 341 | 0.0 | 0.0 | 0.00 | 0.00 | 0.00 | 99 | 1019.3 |
| 20260506122350 | 52 | 341 | 0.0 | 0.0 | 0.00 | 0.00 | 0.00 | 99 | 1019.3 |
| 20260506121849 | 52 | 341 | 0.0 | 0.0 | 0.00 | 0.00 | 0.00 | 99 | 1019.2 |
| 20260506121346 | 52 | 341 | 0.0 | 0.0 | 0.00 | 0.00 | 0.00 | 99 | 1019.2 |
| 20260506120843 | 52 | 341 | 0.0 | 0.0 | 0.00 | 0.00 | 0.00 | 99 | 1019.3 |
| 20260506120340 | 52 | 341 | 0.0 | 0.0 | 0.00 | 0.00 | 0.00 | 99 | 1019.2 |
| 20260506115837 | 52 | 341 | 0.0 | 0.0 | 0.00 | 0.00 | 0.00 | 99 | 1019.2 |
| 20260506115336 | 52 | 341 | 0.0 | 0.0 | 0.00 | 0.00 | 0.00 | 99 | 1019.1 |
| 20260506114834 | 52 | 341 | 0.0 | 0.0 | 0.00 | 0.00 | 0.00 | 99 | 1019.1 |
| 20260506114331 | 52 | 341 | 0.0 | 0.0 | 0.00 | 0.00 | 0.00 | 99 | 1019.0 |
| 20260506113830 | 52 | 341 | 0.0 | 0.0 | 0.00 | 0.00 | 0.00 | 99 | 1019.0 |
| 20260506113327 | 52 | 341 | 0.0 | 0.0 | 0.00 | 0.00 | 0.00 | 99 | 1019.2 |
| 20260506112823 | 52 | 341 | 0.0 | 0.0 | 0.00 | 0.00 | 0.00 | 99 | 1019.2 |
| 20260506112320 | 52 | 341 | 0.0 | 0.0 | 0.00 | 0.00 | 0.00 | 99 | 1019.1 |
| 20260506111818 | 51 | 341 | 0.0 | 0.0 | 0.00 | 0.00 | 0.00 | 99 | 1019.0 |
| 20260506111316 | 51 | 341 | 0.0 | 0.0 | 0.00 | 0.00 | 0.00 | 99 | 1019.0 |
| 20260506110813 | 51 | 341 | 0.0 | 0.0 | 0.00 | 0.00 | 0.00 | 99 | 1018.9 |
| 20260506110310 | 51 | 341 | 0.0 | 0.0 | 0.00 | 0.00 | 0.00 | 99 | 1018.9 |
| 20260506105806 | 51 | 341 | 0.0 | 0.0 | 0.00 | 0.00 | 0.00 | 99 | 1018.9 |
| 20260506105305 | 52 | 341 | 0.0 | 0.0 | 0.00 | 0.00 | 0.00 | 99 | 1018.8 |
| 20260506104801 | 52 | 341 | 0.0 | 0.0 | 0.00 | 0.00 | 0.00 | 99 | 1018.9 |
| 20260506104258 | 52 | 341 | 0.0 | 0.0 | 0.00 | 0.00 | 0.00 | 99 | 1018.9 |
| 20260506103756 | 52 | 341 | 0.0 | 0.0 | 0.00 | 0.00 | 0.00 | 99 | 1018.8 |
| 20260506103253 | 52 | 341 | 0.0 | 0.0 | 0.00 | 0.00 | 0.00 | 99 | 1018.5 |
| 20260506102750 | 52 | 341 | 0.0 | 0.0 | 0.00 | 0.00 | 0.00 | 99 | 1018.6 |
| 20260506102248 | 52 | 341 | 0.0 | 0.0 | 0.00 | 0.00 | 0.00 | 99 | 1018.7 |
| 20260506101745 | 52 | 341 | 0.0 | 0.0 | 0.00 | 0.00 | 0.00 | 99 | 1018.7 |
| 20260506101241 | 52 | 341 | 0.0 | 0.0 | 0.00 | 0.00 | 0.00 | 99 | 1018.5 |
| 20260506100740 | 51 | 341 | 0.0 | 0.0 | 0.00 | 0.00 | 0.00 | 99 | 1018.7 |
| 20260506100237 | 52 | 341 | 0.0 | 0.0 | 0.00 | 0.00 | 0.00 | 99 | 1018.4 |
| 20260506095736 | 52 | 341 | 0.0 | 0.0 | 0.00 | 0.00 | 0.00 | 99 | 1018.3 |
| 20260506095232 | 52 | 341 | 0.0 | 0.0 | 0.00 | 0.00 | 0.00 | 99 | 1018.3 |
| 20260506094729 | 52 | 341 | 0.0 | 0.0 | 0.00 | 0.00 | 0.00 | 99 | 1018.6 |
| 20260506094227 | 52 | 341 | 0.0 | 0.0 | 0.00 | 0.00 | 0.00 | 99 | 1018.5 |
| 20260506093726 | 51 | 341 | 0.0 | 0.0 | 0.00 | 0.00 | 0.00 | 99 | 1018.5 |
| 20260506093222 | 51 | 341 | 0.0 | 0.0 | 0.00 | 0.00 | 0.00 | 99 | 1018.3 |
| 20260506092720 | 51 | 341 | 0.0 | 0.0 | 0.00 | 0.00 | 0.00 | 99 | 1018.5 |
| 20260506092218 | 51 | 341 | 0.0 | 0.0 | 0.00 | 0.00 | 0.00 | 99 | 1018.7 |
| 20260506091715 | 51 | 341 | 0.0 | 0.0 | 0.00 | 0.00 | 0.00 | 99 | 1018.4 |
| 20260506091212 | 51 | 341 | 0.0 | 0.0 | 0.00 | 0.00 | 0.00 | 99 | 1018.5 |
| 20260506090710 | 51 | 341 | 0.0 | 0.0 | 0.00 | 0.00 | 0.00 | 99 | 1018.5 |
| 20260506090207 | 51 | 341 | 0.0 | 0.0 | 0.00 | 0.00 | 0.00 | 99 | 1018.4 |
| 20260506085704 | 51 | 341 | 0.0 | 0.0 | 0.00 | 0.00 | 0.00 | 99 | 1018.5 |
| 20260506085200 | 51 | 341 | 0.0 | 0.0 | 0.00 | 0.00 | 0.00 | 99 | 1018.7 |
| 20260506084656 | 51 | 342 | 0.0 | 0.0 | 0.00 | 0.00 | 0.00 | 99 | 1018.6 |
| 20260506084153 | 51 | 342 | 0.0 | 0.0 | 0.00 | 0.00 | 0.00 | 99 | 1018.7 |
| 20260506083650 | 51 | 342 | 0.0 | 0.0 | 0.00 | 0.00 | 0.00 | 99 | 1018.6 |
| 20260506083148 | 51 | 342 | 0.0 | 0.0 | 0.00 | 0.00 | 0.00 | 99 | 1018.7 |
| 20260506082644 | 51 | 346 | 0.0 | 0.0 | 0.00 | 0.00 | 0.00 | 99 | 1018.7 |
| 20260506082139 | 51 | 277 | 0.0 | 0.0 | 0.00 | 0.00 | 0.00 | 99 | 1018.6 |
| 20260506081638 | 51 | 277 | 0.0 | 0.0 | 0.00 | 0.00 | 0.00 | 99 | 1018.5 |
| 20260506081135 | 51 | 278 | 0.0 | 1.0 | 0.00 | 0.00 | 0.00 | 99 | 1018.5 |
| 20260506080632 | 51 | 280 | 0.0 | 0.0 | 0.00 | 0.00 | 0.00 | 99 | 1018.5 |
| 20260506080129 | 51 | 279 | 0.0 | 0.0 | 0.00 | 0.00 | 0.00 | 99 | 1018.4 |
| 20260506073113 | 51 | 296 | 0.0 | 0.0 | 0.00 | 0.00 | 0.00 | 99 | 1018.1 |
| 20260506072609 | 51 | 285 | 0.0 | 0.0 | 0.00 | 0.00 | 0.00 | 99 | 1018.2 |
| 20260506072108 | 51 | 291 | 1.0 | 1.0 | 0.00 | 0.00 | 0.00 | 99 | 1018.2 |
| 20260506071605 | 51 | 294 | 0.0 | 0.0 | 0.00 | 0.00 | 0.00 | 99 | 1018.2 |
| 20260506071102 | 50 | 309 | 0.0 | 0.0 | 0.00 | 0.00 | 0.00 | 99 | 1018.1 |
| 20260506070559 | 50 | 309 | 0.0 | 0.0 | 0.00 | 0.00 | 0.00 | 99 | 1018.1 |
| 20260506062034 | 51 | 246 | 2.0 | 2.0 | 0.00 | 0.03 | 0.03 | 99 | 1017.9 |
| 20260506061529 | 51 | 282 | 1.0 | 1.0 | 0.00 | 0.03 | 0.03 | 99 | 1017.7 |
| 20260506061027 | 51 | 306 | 0.0 | 1.0 | 0.00 | 0.03 | 0.03 | 99 | 1017.9 |
| 20260506060526 | 51 | 280 | 1.0 | 1.0 | 0.00 | 0.03 | 0.03 | 99 | 1017.6 |
| 20260506050954 | 50 | 262 | 1.0 | 2.0 | 0.00 | 0.03 | 0.03 | 99 | 1017.5 |
| 20260506050452 | 50 | 289 | 0.0 | 0.0 | 0.00 | 0.03 | 0.03 | 99 | 1017.3 |
| 20260506044942 | 50 | 278 | 1.0 | 1.0 | 0.00 | 0.03 | 0.03 | 99 | 1017.4 |
| 20260506044441 | 50 | 265 | 1.0 | 2.0 | 0.00 | 0.03 | 0.03 | 98 | 1017.2 |
| 20260506043937 | 50 | 275 | 0.0 | 1.0 | 0.00 | 0.03 | 0.03 | 98 | 1017.1 |
| 20260506043434 | 50 | 269 | 1.0 | 1.0 | 0.00 | 0.03 | 0.03 | 98 | 1017.1 |
| 20260506042932 | 50 | 281 | 1.0 | 1.0 | 0.00 | 0.03 | 0.03 | 98 | 1017.1 |
| 20260506042431 | 50 | 274 | 0.0 | 0.0 | 0.00 | 0.03 | 0.03 | 98 | 1017.2 |
| 20260506041929 | 50 | 272 | 1.0 | 1.0 | 0.00 | 0.03 | 0.03 | 97 | 1016.8 |
| 20260506041427 | 50 | 281 | 0.0 | 0.0 | 0.00 | 0.03 | 0.03 | 97 | 1016.9 |
| 20260506040924 | 51 | 272 | 0.0 | 0.0 | 0.00 | 0.03 | 0.03 | 97 | 1016.8 |
| 20260506040421 | 51 | 275 | 1.0 | 1.0 | 0.00 | 0.03 | 0.03 | 96 | 1016.6 |
| 20260506035917 | 51 | 277 | 0.0 | 0.0 | 0.00 | 0.03 | 0.03 | 96 | 1016.6 |
| 20260506035415 | 51 | 270 | 1.0 | 1.0 | 0.00 | 0.03 | 0.03 | 96 | 1016.6 |
| 20260506034911 | 52 | 284 | 0.0 | 0.0 | 0.00 | 0.03 | 0.03 | 95 | 1016.6 |
| 20260506034408 | 52 | 283 | 0.0 | 0.0 | 0.00 | 0.03 | 0.03 | 95 | 1016.6 |
| 20260506033905 | 52 | 269 | 0.0 | 0.0 | 0.00 | 0.03 | 0.03 | 95 | 1016.4 |
| 20260506033403 | 52 | 276 | 0.0 | 0.0 | 0.00 | 0.03 | 0.03 | 94 | 1016.2 |
| 20260506032859 | 52 | 276 | 0.0 | 0.0 | 0.00 | 0.03 | 0.03 | 94 | 1016.0 |
| 20260506032356 | 52 | 276 | 0.0 | 0.0 | 0.00 | 0.03 | 0.03 | 94 | 1016.1 |
| 20260506031853 | 53 | 283 | 0.0 | 0.0 | 0.00 | 0.03 | 0.03 | 93 | 1015.9 |
| 20260506031350 | 53 | 282 | 0.0 | 0.0 | 0.00 | 0.03 | 0.03 | 92 | 1015.8 |
| 20260506030848 | 54 | 273 | 0.0 | 0.0 | 0.00 | 0.03 | 0.03 | 91 | 1015.7 |
| 20260506030346 | 54 | 274 | 0.0 | 0.0 | 0.00 | 0.03 | 0.03 | 90 | 1015.8 |
| 20260506025842 | 55 | 299 | 0.0 | 0.0 | 0.00 | 0.03 | 0.03 | 89 | 1015.8 |
| 20260506025339 | 55 | 262 | 0.0 | 1.0 | 0.00 | 0.03 | 0.03 | 89 | 1015.7 |
| 20260506024836 | 55 | 69 | 1.0 | 1.0 | 0.00 | 0.03 | 0.03 | 89 | 1015.4 |
| 20260506024333 | 55 | 292 | 1.0 | 1.0 | 0.00 | 0.03 | 0.03 | 88 | 1015.5 |
| 20260506023829 | 55 | 284 | 1.0 | 1.0 | 0.00 | 0.03 | 0.03 | 88 | 1015.3 |
| 20260506023326 | 56 | 269 | 1.0 | 1.0 | 0.00 | 0.03 | 0.03 | 88 | 1015.3 |
| 20260506022822 | 56 | 298 | 0.0 | 0.0 | 0.00 | 0.03 | 0.03 | 87 | 1015.3 |
| 20260506022320 | 56 | 315 | 0.0 | 0.0 | 0.00 | 0.03 | 0.03 | 87 | 1015.3 |
| 20260506021819 | 56 | 305 | 1.0 | 2.0 | 0.00 | 0.03 | 0.03 | 87 | 1015.1 |
| 20260506021315 | 56 | 293 | 1.0 | 2.0 | 0.00 | 0.03 | 0.03 | 86 | 1015.2 |
| 20260506020811 | 56 | 250 | 3.0 | 5.0 | 0.00 | 0.03 | 0.03 | 85 | 1015.3 |
| 20260506020309 | 57 | 297 | 2.0 | 2.0 | 0.00 | 0.03 | 0.03 | 84 | 1015.0 |
| 20260506015807 | 57 | 291 | 4.0 | 6.0 | 0.00 | 0.03 | 0.03 | 83 | 1015.2 |
| 20260506015306 | 57 | 264 | 3.0 | 3.0 | 0.00 | 0.03 | 0.03 | 85 | 1015.0 |
| 20260506014801 | 57 | 323 | 1.0 | 1.0 | 0.00 | 0.03 | 0.03 | 84 | 1014.9 |
| 20260506014258 | 57 | 253 | 5.0 | 7.0 | 0.00 | 0.03 | 0.03 | 84 | 1014.9 |
| 20260506013754 | 57 | 289 | 1.0 | 1.0 | 0.00 | 0.03 | 0.03 | 85 | 1015.1 |
| 20260506013252 | 57 | 274 | 3.0 | 7.0 | 0.00 | 0.03 | 0.03 | 84 | 1015.0 |
| 20260506012748 | 57 | 224 | 3.0 | 5.0 | 0.00 | 0.03 | 0.03 | 85 | 1015.2 |
| 20260506012245 | 57 | 267 | 3.0 | 5.0 | 0.00 | 0.03 | 0.03 | 85 | 1015.0 |
| 20260506011743 | 57 | 272 | 5.0 | 8.0 | 0.00 | 0.03 | 0.03 | 85 | 1015.1 |
| 20260506011239 | 58 | 264 | 1.0 | 2.0 | 0.00 | 0.03 | 0.03 | 85 | 1015.1 |
| 20260506010737 | 58 | 241 | 2.0 | 2.0 | 0.00 | 0.03 | 0.03 | 84 | 1014.9 |
| 20260506010234 | 58 | 292 | 0.0 | 0.0 | 0.00 | 0.03 | 0.03 | 85 | 1015.0 |
| 20260506005731 | 58 | 255 | 1.0 | 1.0 | 0.00 | 0.03 | 0.03 | 85 | 1015.1 |
| 20260506005228 | 58 | 321 | 1.0 | 1.0 | 0.00 | 0.03 | 0.03 | 84 | 1015.2 |
| 20260506004724 | 58 | 237 | 1.0 | 3.0 | 0.00 | 0.03 | 0.03 | 83 | 1015.3 |
| 20260506004222 | 58 | 248 | 3.0 | 3.0 | 0.00 | 0.03 | 0.03 | 83 | 1015.0 |
| 20260506003717 | 58 | 261 | 3.0 | 5.0 | 0.00 | 0.03 | 0.03 | 83 | 1015.0 |
| 20260506003214 | 58 | 322 | 3.0 | 6.0 | 0.00 | 0.03 | 0.03 | 82 | 1015.1 |
| 20260506002710 | 58 | 288 | 3.0 | 5.0 | 0.00 | 0.03 | 0.03 | 83 | 1015.0 |
| 20260506002206 | 58 | 272 | 2.0 | 3.0 | 0.00 | 0.03 | 0.03 | 83 | 1014.9 |
| 20260506001702 | 58 | 266 | 4.0 | 5.0 | 0.00 | 0.03 | 0.03 | 83 | 1014.9 |
| 20260506001200 | 59 | 296 | 2.0 | 2.0 | 0.00 | 0.03 | 0.03 | 82 | 1014.9 |
| 20260506000656 | 59 | 306 | 4.0 | 5.0 | 0.00 | 0.03 | 0.03 | 81 | 1014.9 |
| 20260506000154 | 59 | 259 | 1.0 | 3.0 | 0.00 | 0.03 | 0.03 | 81 | 1014.9 |
| 20260505235652 | 60 | 285 | 2.0 | 3.0 | 0.00 | 0.03 | 0.03 | 81 | 1014.8 |
| 20260505235149 | 59 | 314 | 1.0 | 1.0 | 0.00 | 0.03 | 0.03 | 83 | 1014.9 |
| 20260505234646 | 59 | 282 | 3.0 | 3.0 | 0.00 | 0.03 | 0.03 | 82 | 1014.9 |
| 20260505234143 | 59 | 297 | 2.0 | 2.0 | 0.00 | 0.03 | 0.03 | 83 | 1014.7 |
| 20260505233639 | 60 | 279 | 1.0 | 2.0 | 0.00 | 0.03 | 0.03 | 81 | 1015.0 |
| 20260505233137 | 60 | 271 | 4.0 | 6.0 | 0.00 | 0.03 | 0.03 | 80 | 1014.9 |
| 20260505232635 | 59 | 254 | 3.0 | 5.0 | 0.00 | 0.03 | 0.03 | 82 | 1014.7 |
| 20260505232132 | 60 | 300 | 2.0 | 3.0 | 0.00 | 0.03 | 0.03 | 81 | 1015.0 |
| 20260505231629 | 60 | 272 | 4.0 | 6.0 | 0.00 | 0.03 | 0.03 | 81 | 1015.0 |
| 20260505231127 | 60 | 296 | 2.0 | 3.0 | 0.00 | 0.03 | 0.03 | 81 | 1015.0 |
| 20260505230625 | 60 | 287 | 4.0 | 5.0 | 0.00 | 0.03 | 0.03 | 81 | 1015.1 |
| 20260505230121 | 60 | 307 | 1.0 | 1.0 | 0.00 | 0.03 | 0.03 | 82 | 1015.0 |
| 20260505225618 | 61 | 299 | 2.0 | 3.0 | 0.00 | 0.03 | 0.03 | 80 | 1015.0 |
| 20260505225114 | 61 | 287 | 1.0 | 1.0 | 0.00 | 0.03 | 0.03 | 80 | 1015.1 |
| 20260505224611 | 61 | 284 | 3.0 | 3.0 | 0.00 | 0.03 | 0.03 | 81 | 1015.0 |
| 20260505224108 | 62 | 226 | 3.0 | 3.0 | 0.00 | 0.03 | 0.03 | 80 | 1015.0 |
| 20260505223605 | 63 | 247 | 2.0 | 3.0 | 0.00 | 0.03 | 0.03 | 79 | 1014.9 |
| 20260505223101 | 63 | 252 | 1.0 | 2.0 | 0.00 | 0.03 | 0.03 | 78 | 1015.0 |
| 20260505222558 | 63 | 254 | 3.0 | 3.0 | 0.00 | 0.03 | 0.03 | 79 | 1015.2 |
| 20260505222054 | 64 | 199 | 3.0 | 3.0 | 0.00 | 0.03 | 0.03 | 76 | 1015.0 |
| 20260505221551 | 63 | 302 | 3.0 | 3.0 | 0.00 | 0.03 | 0.03 | 79 | 1015.0 |
| 20260505221047 | 62 | 257 | 2.0 | 2.0 | 0.00 | 0.03 | 0.03 | 80 | 1015.1 |
| 20260505220545 | 62 | 284 | 1.0 | 2.0 | 0.00 | 0.03 | 0.03 | 81 | 1015.1 |
| 20260505220043 | 62 | 299 | 1.0 | 1.0 | 0.00 | 0.03 | 0.03 | 80 | 1015.1 |
| 20260505215541 | 62 | 276 | 2.0 | 2.0 | 0.00 | 0.03 | 0.03 | 80 | 1015.3 |
| 20260505215038 | 61 | 292 | 1.0 | 1.0 | 0.00 | 0.03 | 0.03 | 82 | 1015.2 |
| 20260505214536 | 61 | 219 | 2.0 | 2.0 | 0.00 | 0.03 | 0.03 | 81 | 1015.2 |
| 20260505214033 | 61 | 318 | 1.0 | 2.0 | 0.00 | 0.03 | 0.03 | 80 | 1015.4 |
| 20260505213531 | 61 | 195 | 3.0 | 3.0 | 0.00 | 0.03 | 0.03 | 81 | 1015.3 |
| 20260505213026 | 61 | 288 | 0.0 | 0.0 | 0.00 | 0.03 | 0.03 | 81 | 1015.3 |
| 20260505212523 | 61 | 309 | 0.0 | 1.0 | 0.00 | 0.03 | 0.03 | 82 | 1015.2 |
| 20260505212020 | 61 | 285 | 1.0 | 2.0 | 0.00 | 0.03 | 0.03 | 82 | 1015.5 |
| 20260505211518 | 61 | 299 | 0.0 | 1.0 | 0.00 | 0.03 | 0.03 | 83 | 1015.4 |
| 20260505211014 | 61 | 232 | 2.0 | 2.0 | 0.00 | 0.03 | 0.03 | 80 | 1015.4 |
| 20260505210511 | 62 | 291 | 2.0 | 2.0 | 0.00 | 0.03 | 0.03 | 81 | 1015.4 |
| 20260505210008 | 63 | 280 | 2.0 | 2.0 | 0.00 | 0.03 | 0.03 | 79 | 1015.4 |
| 20260505205506 | 62 | 290 | 0.0 | 1.0 | 0.00 | 0.03 | 0.03 | 79 | 1015.5 |
| 20260505205003 | 62 | 266 | 2.0 | 2.0 | 0.00 | 0.03 | 0.03 | 79 | 1015.3 |
| 20260505204501 | 62 | 256 | 1.0 | 1.0 | 0.00 | 0.03 | 0.03 | 78 | 1015.4 |
| 20260505203957 | 62 | 313 | 2.0 | 2.0 | 0.00 | 0.03 | 0.03 | 81 | 1015.3 |
| 20260505203454 | 62 | 244 | 1.0 | 1.0 | 0.00 | 0.03 | 0.03 | 77 | 1015.5 |
| 20260505202950 | 62 | 261 | 2.0 | 2.0 | 0.00 | 0.03 | 0.03 | 80 | 1015.5 |
| 20260505202447 | 62 | 312 | 0.0 | 0.0 | 0.00 | 0.03 | 0.03 | 81 | 1015.5 |
| 20260505201943 | 62 | 323 | 0.0 | 1.0 | 0.00 | 0.03 | 0.03 | 80 | 1015.5 |
| 20260505201440 | 62 | 276 | 2.0 | 2.0 | 0.00 | 0.03 | 0.03 | 79 | 1015.4 |
| 20260505200938 | 61 | 308 | 1.0 | 1.0 | 0.00 | 0.03 | 0.03 | 82 | 1015.5 |
| 20260505200436 | 61 | 286 | 1.0 | 2.0 | 0.00 | 0.03 | 0.03 | 83 | 1015.8 |
| 20260505195931 | 60 | 245 | 3.0 | 3.0 | 0.00 | 0.03 | 0.03 | 81 | 1015.7 |
| 20260505195428 | 60 | 287 | 1.0 | 1.0 | 0.00 | 0.03 | 0.03 | 83 | 1015.7 |
| 20260505194926 | 60 | 223 | 1.0 | 2.0 | 0.00 | 0.03 | 0.03 | 82 | 1015.8 |
| 20260505194423 | 60 | 291 | 2.0 | 2.0 | 0.00 | 0.03 | 0.03 | 81 | 1015.8 |
| 20260505193923 | 60 | 296 | 1.0 | 2.0 | 0.00 | 0.03 | 0.03 | 81 | 1015.5 |
| 20260505193421 | 60 | 303 | 1.0 | 1.0 | 0.00 | 0.03 | 0.03 | 82 | 1015.7 |
| 20260505192918 | 61 | 312 | 0.0 | 0.0 | 0.00 | 0.03 | 0.03 | 81 | 1015.7 |
| 20260505192416 | 61 | 334 | 1.0 | 1.0 | 0.00 | 0.03 | 0.03 | 80 | 1015.8 |
| 20260505191914 | 61 | 281 | 2.0 | 3.0 | 0.00 | 0.03 | 0.03 | 81 | 1015.7 |
| 20260505191412 | 61 | 259 | 2.0 | 2.0 | 0.00 | 0.03 | 0.03 | 81 | 1015.8 |
| 20260505190909 | 61 | 294 | 1.0 | 2.0 | 0.00 | 0.03 | 0.03 | 82 | 1015.4 |
| 20260505190404 | 60 | 321 | 1.0 | 2.0 | 0.00 | 0.03 | 0.03 | 84 | 1015.8 |
| 20260505185859 | 59 | 286 | 0.0 | 1.0 | 0.00 | 0.03 | 0.03 | 84 | 1016.0 |
| 20260505185356 | 58 | 258 | 1.0 | 2.0 | 0.00 | 0.03 | 0.03 | 86 | 1015.8 |
| 20260505184852 | 58 | 270 | 2.0 | 2.0 | 0.00 | 0.03 | 0.03 | 86 | 1015.7 |
| 20260505184350 | 57 | 285 | 0.0 | 1.0 | 0.00 | 0.03 | 0.03 | 86 | 1015.8 |
| 20260505183847 | 57 | 283 | 0.0 | 1.0 | 0.00 | 0.03 | 0.03 | 86 | 1015.9 |
| 20260505183343 | 58 | 294 | 3.0 | 3.0 | 0.00 | 0.03 | 0.03 | 86 | 1015.7 |
| 20260505182840 | 57 | 285 | 0.0 | 1.0 | 0.00 | 0.03 | 0.03 | 87 | 1015.7 |
| 20260505182337 | 57 | 262 | 1.0 | 2.0 | 0.00 | 0.03 | 0.03 | 86 | 1015.3 |
| 20260505181834 | 57 | 259 | 1.0 | 2.0 | 0.00 | 0.03 | 0.03 | 85 | 1015.5 |
| 20260505181331 | 58 | 237 | 2.0 | 2.0 | 0.00 | 0.03 | 0.03 | 85 | 1015.4 |
| 20260505180827 | 60 | 246 | 5.0 | 6.0 | 0.00 | 0.03 | 0.03 | 82 | 1015.4 |
| 20260505180324 | 60 | 260 | 1.0 | 1.0 | 0.00 | 0.03 | 0.03 | 82 | 1015.4 |
| 20260505175820 | 59 | 311 | 0.0 | 0.0 | 0.00 | 0.03 | 0.03 | 80 | 1015.5 |
| 20260505175317 | 59 | 225 | 1.0 | 2.0 | 0.00 | 0.03 | 0.03 | 81 | 1015.3 |
| 20260505174814 | 59 | 322 | 1.0 | 2.0 | 0.00 | 0.03 | 0.03 | 83 | 1015.4 |
| 20260505174311 | 58 | 294 | 0.0 | 0.0 | 0.00 | 0.03 | 0.03 | 83 | 1015.1 |